星链-36877(STARLINK-36877)

导读 | 豆包AI

STARLINK-36877是美国SpaceX星链互联网星座计划中的一颗卫星,于2026年2月21日在美国发射升空。作为星链星座组网的成员,它承担着为全球尤其是偏远地区提供高速低延迟互联网服务的任务,助力星链实现覆盖全球的卫星互联网布局,进一步推进美国低轨卫星星座建设进程。

基本信息
目录编号:
67896
目录名称:
STARLINK-36877
国际标识:
2026-035T
轨道中心:
EARTH
卫星名称:
星链-36877
卫星全名:
星链-36877(STARLINK-36877)
卫星状态:
在轨 (已飞行21 天)
发射日期:
2026-02-21 UTC
国别 :
美国 (US)
星等 :
--
轨道信息
数据来源 国际轨道数据
星历时间: 2026-03-14T14:00:02+0800
14小时前
查看轨道信息
半长轴: 6706.494km
偏心率: 0.0001731
轨道倾角: 97.286°
近地点辐角 116.192°
升交点赤经 5.867°
平近点角 171.868°
近地点: 327.196km
远地点: 329.518km
周期: 91.097分钟
每日圈数: 15.807366
详细信息
固有亮度:
5
最大亮度:
2.5
卫星平台:
Starlink V1.0
覆盖范围:
全球
运营商:
太空探索技术公司
运营商所在国:
美国
制造商(研发单位):
太空探索技术公司
制造商所在国:
美国
使用方式:
暂无
卫星简介
Starlink 计划是 SpaceX 推出的全球卫星互联网项目,通过发射低轨道卫星,为全球尤其是偏远地区提供高速、低延迟的互联网服务。自 2019 年起,Starlink 已部署数千颗卫星,旨在缩小全球数字鸿沟,推动互联网普及。该项目还为军事、航空等行业提供通信支持,带来广泛经济效益。
2D轨道图
3D轨道图
轨道高度分析图
轨道倾角分析图
轨道综合分析图
查看轨道综合分析图